Voltar ao catálogo

COSMOS 1275 DEB

AtivoPO
NORAD 42184·DEBRIS·🇷🇺 Russia

Lançado Jun 4, 1981 de Plesetsk Cosmodrome

Loading…

Próximas Passagens (próximas 24 horas)

TLE

EnvelhecendoSource: Space-Track

Época: Sep 3, 2026, 11:11 UTC

1 42184U 81053SY  26246.46609192  .00000153  00000-0  17408-3 0  9995
2 42184  83.0183 251.7728 0094081 246.4481 267.3599 13.62394522622218

Acompanhe COSMOS 1275 DEB em tempo real com AllMySat

Download on the App Store